Location: Breitenfeld
(46.8500°N, 15.6333°E)
Time: 06:37:33
(UTC+00:00)

Cosmos 540 Rocket - Pass Details

Date: 09 April 2020
Orbit: 741 x 753 km, 74.1° (Epoch: 02 June)

Event Time Altitude Azimuth Distance (km) Brightness Sun altitude
Rises 19:46:22 0° 342° (NNW) 3,213 7.6 -20.5°
Reaches altitude 10° 19:48:53 10° 350° (N) 2,283 6.6 -20.9°
Maximum altitude 19:53:45 40° 60° (ENE) 1,096 4.1 -21.5°
Enters shadow 19:54:29 38° 82° (E) 1,136 4.0 -21.6°
